Orbital Elements at Epoch 2459200.5 (2020-Dec-17.0) TDB
Reference: JPL 21 (heliocentric ecliptic J2000)
Element | Value | Uncertainty (1-sigma) | Units |
e | .1129527570087105 | 3.6494e-08 | |
a | 3.25931447180086 | 2.1105e-08 | au |
q | 2.891165916252564 | 1.2024e-07 | au |
i | 10.71499991406293 | 4.7149e-06 | deg |
node | 138.4657042533403 | 2.1762e-05 | deg |
peri | 277.1175197856386 | 3.0705e-05 | deg |
M | 259.2095091183052 | 2.2621e-05 | deg |
tp | 2459802.234460871303 (2022-Aug-10.73446087) | 0.0001375 | TDB |
period | 2149.254399087479 5.88 | 2.0876e-05 5.716e-08 | d yr |
n | .1674999479600215 | 1.6269e-09 | deg/d |
Q | 3.627463027349157 | 2.3489e-08 | au |
|
| | Orbit Determination Parameters
Additional Information
|